Location: Sternwarte_Laufen
(47.9344°N, 12.9346°E)
Time: 00:34:01
(UTC+02:00)

Envisat - Pass Details

Date: 16 May 2026
Orbit: 761 x 763 km, 98.4° (Epoch: 7 June)

Event Time Altitude Azimuth Distance (km) Brightness Sun altitude
Rises 03:34:08 0° 17° (NNE) 3,236 7.7 -15.1°
Reaches altitude 10° 03:36:29 10° 21° (NNE) 2,305 6.7 -14.9°
Maximum altitude 03:41:30 60° 101° (E) 874 3.4 -14.4°
Enters shadow 03:46:00 13° 180° (S) 2,103 4.8 -13.9°
